Weather History for Imperial, NE

Change the Weather History Date:

Sunday, July 7, 2013

  Actual Average Record
Temperature  
Mean Temperature 81 °F 76 °F  
Max Temperature 97 °F 91 °F 106 °F (1930)
Min Temperature 65 °F 61 °F 46 °F (1895)
Degree Days  
Heating Degree Days 0 0  
Month to date heating degree days 0 0  
Since 1 June heating degree days 24 34  
Cooling Degree Days 16 11  
Month to date cooling degree days 65 72  
Year to date cooling degree days 364 300  
Since 1 June cooling degree days 296 256  
Growing Degree Days 31 (Base 50)    
Moisture  
Dew Point 62 °F    
Average Humidity 57    
Maximum Humidity 87    
Minimum Humidity 27    
Precipitation  
Precipitation 0.18 in 0.07 in 0.94 in (1920)
Sea Level Pressure  
Sea Level Pressure 29.86 in    
Wind  
Wind Speed 11 mph (ENE)    
Max Wind Speed 32 mph    
Max Gust Speed 41 mph    
Visibility 9 miles    
Events Rain , Thunderstorm    
T = Trace of Precipitation, MM = Missing Value Source: NWS Daily Summary

Daily Weather History Graph

Daily Weather History Graph

Search for Another Location

Airport:

Trip Planner

Search our weather history database for the weather conditions in past years. The results will help you decide how hot, cold, wet, or windy it might be!

Date:

Astronomy

Jul. 07, 2013 Rise Set
Actual Time 5:23 AM MDT 8:19 PM MDT
Civil Twilight 4:50 AM MDT 8:52 PM MDT
Nautical Twilight 4:09 AM MDT 9:33 PM MDT
Astronomical Twilight 3:20 AM MDT 10:21 PM MDT
Moon 5:01 AM MDT (7/7) 7:44 PM MDT (7/7)
Length of Visible Light 16h 01m
Length of Day
14h 56m
Waning Crescent, 0% of the Moon is Illuminated
Jul 7
Waning Crescent
Jul 8
New
Jul 15
First Quarter
Jul 22
Full
Jul 29
Last Quarter

Hourly Weather History & Observations

Time (MDT) Temp. Heat Index Dew Point Humidity Pressure Visibility Wind Dir Wind Speed Gust Speed Precip Events Conditions
12:53 AM 73.0 °F - 62.1 °F 68% 29.76 in 10.0 mi North 4.6 mph - N/A   Clear
1:53 AM 71.1 °F - 62.1 °F 73% 29.76 in 10.0 mi NNW 6.9 mph - N/A   Clear
2:53 AM 70.0 °F - 62.1 °F 76% 29.77 in 9.0 mi North 8.1 mph - N/A   Clear
3:53 AM 68.0 °F - 62.1 °F 81% 29.76 in 9.0 mi NNE 5.8 mph - N/A   Clear
4:53 AM 66.0 °F - 61.0 °F 84% 29.79 in 9.0 mi Calm Calm - N/A   Clear
5:53 AM 66.9 °F - 62.1 °F 84% 29.82 in 8.0 mi ENE 5.8 mph - N/A   Clear
6:53 AM 72.0 °F - 63.0 °F 73% 29.83 in 9.0 mi NNE 8.1 mph - N/A   Clear
7:53 AM 73.9 °F - 64.0 °F 71% 29.84 in 10.0 mi NNE 15.0 mph - N/A   Clear
8:53 AM 79.0 °F - 63.0 °F 58% 29.85 in 10.0 mi NE 13.8 mph - N/A   Clear
9:53 AM 84.9 °F 86.1 °F 64.0 °F 49% 29.84 in 10.0 mi ENE 11.5 mph - N/A   Clear
10:53 AM 86.0 °F 86.8 °F 63.0 °F 46% 29.85 in 10.0 mi East 12.7 mph 18.4 mph N/A   Clear
11:53 AM 87.1 °F 87.5 °F 62.1 °F 43% 29.87 in 10.0 mi East 8.1 mph - N/A   Clear
12:53 PM 91.0 °F 91.5 °F 62.1 °F 38% 29.85 in 10.0 mi East 5.8 mph 19.6 mph N/A   Clear
1:53 PM 93.0 °F 93.8 °F 62.1 °F 36% 29.84 in 10.0 mi East 12.7 mph - N/A   Clear
2:53 PM 93.9 °F 93.2 °F 59.0 °F 31% 29.82 in 10.0 mi ESE 10.4 mph - N/A   Clear
3:53 PM 96.1 °F 95.2 °F 57.9 °F 28% 29.81 in 10.0 mi Variable 3.5 mph - N/A   Clear
4:53 PM 95.0 °F 94.0 °F 57.9 °F 29% 29.79 in 10.0 mi East 6.9 mph - N/A   Clear
5:53 PM 93.9 °F 93.2 °F 59.0 °F 31% 29.79 in 10.0 mi ESE 9.2 mph - N/A   Clear
6:53 PM 89.1 °F 89.3 °F 62.1 °F 40% 29.79 in 10.0 mi ESE 10.4 mph - N/A   Clear
7:53 PM 82.9 °F 82.8 °F 59.0 °F 44% 29.82 in 10.0 mi South 5.8 mph - N/A   Clear
8:50 PM 82.4 °F 82.5 °F 59.0 °F 45% 30.00 in 10.0 mi West 23.0 mph 28.8 mph N/A Thunderstorm Mostly Cloudy
8:53 PM 79.0 °F - 61.0 °F 54% 29.89 in 9.0 mi West 21.9 mph 32.2 mph N/A Thunderstorm Mostly Cloudy
9:08 PM 71.6 °F - 66.2 °F 83% 30.02 in 5.0 mi WNW 15.0 mph 36.8 mph 0.02 in Rain , Thunderstorm Thunderstorms and Rain
9:53 PM 66.0 °F - 62.1 °F 87% 29.99 in 10.0 mi North 17.3 mph 31.1 mph 0.09 in Rain , Thunderstorm Light Thunderstorms and Rain
10:45 PM 66.2 °F - 64.4 °F 94% 30.01 in 6.0 mi East 29.9 mph 34.5 mph 0.08 in Rain Light Rain
10:53 PM 68.0 °F - 64.0 °F 87% 29.91 in 8.0 mi East 24.2 mph 40.3 mph 0.09 in Rain Light Rain
11:02 PM 69.8 °F - 62.6 °F 78% 30.03 in 10.0 mi East 20.7 mph 31.1 mph 0.00 in Rain , Thunderstorm Light Rain
11:17 PM 69.8 °F - 62.6 °F 78% 30.02 in 10.0 mi East 20.7 mph 31.1 mph 0.00 in   Partly Cloudy
11:53 PM 70.0 °F - 62.1 °F 76% 29.92 in 10.0 mi East 19.6 mph 26.5 mph 0.00 in   Clear